Regional Weather Roundup
Issued by NWS

Home | Current Version | Previous Version | Graphics & Text | Print | Product List | Glossary On
Versions: 1 2 3 4 5 6 7 8 9 10 11 12 13 14 15 16 17 18 19 20 21 22 23 24 25 26 27 28 29 30 31 32 33 34 35 36 37 38 39 40 41 42 43 44 45 46 47 48 49 50
000
ASUS45 KABQ 030110
RWRNM
NEW MEXICO REGIONAL WEATHER ROUNDUP
NATIONAL WEATHER SERVICE ALBUQUERQUE NM
600 PM MST FRI DEC 02 2016

NOTE: "FAIR" MEANS FEW OR NO CLOUDS BELOW 12,000 FEET AGL WITH NO
       SIGNIFICANT WEATHER OR OBSTRUCTIONS TO VISION.

      THIS PRODUCT IS RELEASED AS TWO VERSIONS.  ONE VERSION NEAR
      THE TOP OF THE HOUR CONTAINING PRELIMINARY DATA FROM ALBUQUERQUE
      AND OTHER STATIONS.  A FINAL VERSION WITH ADDITIONAL DATA IS
      ISSUED ABOUT 10 MINUTES AFTER THE HOUR.

NMZ501-503-504-510>518-030200-
NORTHWEST PLATEAU/NORTHCENTRAL MOUNTAINS

CITY           SKY/WX    TMP DP  RH WIND       PRES   REMARKS
FARMINGTON     CLOUDY    35  22  58 W7        30.02R WCI  29
LOS ALAMOS     FAIR      32  22  65 S7        30.06R WCI  26
SANTA FE       MOCLDY    34  22  61 SE9       30.05R WCI  27
TAOS           CLOUDY    27  16  63 N7        30.06R WCI  19
ANGEL FIRE     CLOUDY    22  19  89 N5        30.08S WCI  16

$$
NMZ402-403-502-505>509-030200-
WESTCENTRAL MOUNTAINS/SOUTHWEST MOUNTAINS

CITY           SKY/WX    TMP DP  RH WIND       PRES   REMARKS
GALLUP         FAIR      32  20  61 NE7       29.99R WCI  26
GRANTS         CLOUDY    37  23  58 SW5       30.00R WCI  33

$$
NMZ407-409-411-412-030200-
SOUTHERN DESERTS

CITY           SKY/WX    TMP DP  RH WIND       PRES   REMARKS
DEMING         CLOUDY    52  35  52 W8G20     29.90R
LAS CRUCES     CLOUDY    53  27  36 N3        29.91R
HOLLOMAN AFB   CLOUDY    55  24  30 N5        29.94R
T OR C         CLOUDY    53  25  33 SW3       29.91R

$$
NMZ519>523-030200-
CENTRAL VALLEYS/CENTRAL HIGHLANDS

CITY           SKY/WX    TMP DP  RH WIND       PRES   REMARKS
ALBUQUERQUE    MOCLDY    39  18  42 E31G38    30.00R WCI  27
DOUBLE EAGLE   MOCLDY    37  18  44 E13       30.02R WCI  29
MORIARTY ARPT  FAIR      32  19  58 E8        30.09R WCI  25
CLINES CORNERS CLOUDY    27  19  72 E16       30.07R WCI  15
BELEN          FAIR      43  20  39 E8        29.98R
SOCORRO        CLOUDY    47  25  42 E16G30    29.96R

$$
NMZ524>526-539-540-030200-
SOUTHCENTRAL MOUNTAINS

CITY           SKY/WX    TMP DP  RH WIND       PRES   REMARKS
RUIDOSO        CLOUDY    34  28  80 SE6       30.08R WCI  29

$$
NMZ527>531-030200-
NORTHEAST HIGHLANDS/NORTHEAST PLAINS

CITY           SKY/WX    TMP DP  RH WIND       PRES   REMARKS
LAS VEGAS      CLOUDY    25  22  88 NE12      30.11R WCI  14
RATON          LGT SNOW  27  24  89 CALM      30.13R FOG
CLAYTON        CLOUDY    36  21  54 NE10      30.15S WCI  28

$$
NMZ532>537-030200-
EASTCENTRAL PLAINS

CITY           SKY/WX    TMP DP  RH WIND       PRES   REMARKS
TUCUMCARI      CLOUDY    43  20  39 NE9       30.12R
CANNON AFB     CLOUDY    42  28  57 E12       30.09R
CLOVIS AIRPORT CLOUDY    39  28  65 E15       30.10R WCI  31

$$
NMZ028-029-538-030200-
SOUTHEAST PLAINS

CITY           SKY/WX    TMP DP  RH WIND       PRES   REMARKS
ROSWELL        CLOUDY    48  31  51 N10       30.05R
ARTESIA        CLOUDY    48  41  76 NE8       30.03S
CARLSBAD       CLOUDY    48  42  80 N9        30.01R
HOBBS          CLOUDY    41  41 100 N12       30.06R FOG


$$




USA.gov is the U.S. government's official web portal to all federal, state and local government web resources and services.